Flag Weather past 2 weeks in Hudson, Wisconsin, U.S.A.

Now
23 °F

Clear.


Feels Like: 15 °F
Forecast: 25 / 36 °F
Wind: 7 mph from Southeast

Location: St. Paul Downtown Holman Field

Current Time: Nov 29, 2014 at 1:45:42 AM

Latest Report: Nov 29, 2014 at 12:53 AM


Visibility: 10 mi

Pressure: 29.69 "Hg

Humidity: 85%

Dew point: 19 °F

Location of HudsonLocation

Historic Weather in Hudson — Graph

°F

Hudson temperature yesterday

Maximum temperature yesterday: 23 °F (at 3:53 PM)
Minimum temperature yesterday: 8 °F (at 12:53 AM)
Average temperature yesterday: 18 °F

Past Weeks' High & Low Weather Summary

 TemperatureHumidityPressure
High47 °F (Nov 23, 11:53 AM)100% (Nov 22, 7:53 PM)30.60 "Hg (Nov 22, 7:53 PM)
Low-1 °F (Nov 27, 6:53 AM)49% (Nov 20, 12:53 PM)29.31 "Hg (Nov 24, 2:53 AM)
Average20 °F77%30.02 "Hg
* Reported Nov 13 11:53 PM — Nov 28 11:53 PM, Hudson, Weather by CustomWeather, © 2014

Note: Actual official high and low records may vary slightly from our data, if they occured in-between our weather recording intervals... More about our weather records

Advertising

Hudson weather history for previous 24 hours

 ConditionsComfort  
Time TempWeatherWind HumidityBarometerVisibility
11:53 PM
Nov 28
23 °FClear.10 mph85%29.72 "Hg10 mi
10:53 PM23 °FClear.N/A81%29.76 "Hg10 mi
9:53 PM23 °FPassing clouds.9 mph81%29.79 "Hg10 mi
8:53 PM23 °FClear.8 mph81%29.83 "Hg10 mi
7:53 PM23 °FPassing clouds.7 mph78%29.87 "Hg10 mi
6:53 PM23 °FPassing clouds.6 mph78%29.88 "Hg10 mi
5:53 PM23 °FClear.8 mph74%29.88 "Hg10 mi
4:53 PM22 °FPassing clouds.6 mph78%29.88 "Hg10 mi
3:53 PM23 °FOvercast.9 mph74%29.90 "Hg10 mi
2:53 PM22 °FPartly sunny.10 mph75%29.90 "Hg10 mi
1:53 PM22 °FMore clouds than sun.7 mph68%29.93 "Hg10 mi
12:53 PM21 °FOvercast.12 mph71%29.94 "Hg10 mi
11:53 AM20 °FOvercast.9 mph71%30.00 "Hg10 mi
10:53 AM19 °FOvercast.12 mph71%30.03 "Hg10 mi
9:53 AM17 °FOvercast.5 mph74%30.06 "Hg10 mi
8:53 AM16 °FOvercast.10 mph74%30.04 "Hg10 mi
7:53 AM14 °FOvercast.9 mph77%30.07 "Hg10 mi
6:53 AM14 °FOvercast.9 mph77%30.09 "Hg10 mi
5:53 AM13 °FOvercast.9 mph81%30.11 "Hg10 mi
4:53 AM12 °FOvercast.13 mph84%30.12 "Hg10 mi
3:53 AM11 °FOvercast.13 mph84%30.16 "Hg10 mi
3:01 AM10 °FLight snow. Ice fog.13 mph84%30.16 "Hg3 mi
2:53 AM10 °FLight snow. Ice fog.12 mph84%30.21 "Hg2 mi
1:53 AM8 °FLight snow. Ice fog.9 mph87%30.28 "Hg1 mi
Weather by CustomWeather, © 2014

See weather overviewHow to use our weather pages